AO-07 1 07530U 74089B 21021.44163571 -.00000044 00000-0 11217-4 0 9995 2 07530 101.8346 356.2195 0012103 305.7369 228.1389 12.53646959113548 UO-11 1 14781U 84021B 21021.46565464 .00000111 00000-0 19695-4 0 9999 2 14781 97.5900 28.5743 0007946 195.1705 164.9273 14.83239003964145 LO-19 1 20442U 90005G 21021.57665871 .00000007 00000-0 19274-4 0 9991 2 20442 98.7223 335.8685 0010865 230.0241 129.9989 14.32973940619796 HUBBLE 1 20580U 90037B 21021.17309028 .00000492 00000-0 18889-4 0 9993 2 20580 28.4707 319.5184 0002456 275.3098 282.2701 15.09538791488827 MET-2/21 1 22782U 93055A 21021.07892738 -.00000006 00000-0 -18264-4 0 9996 2 22782 82.5470 60.8805 0022041 348.1965 40.4943 13.83831660383143 AO-27 1 22825U 93061C 21021.03385383 -.00000016 00000-0 11975-4 0 9992 2 22825 98.9243 34.9741 0009448 102.5593 257.6646 14.30103923424916 IO-26 1 22826U 93061D 21020.96913809 -.00000002 00000-0 17180-4 0 9993 2 22826 98.9185 34.8310 0009998 91.8223 268.4104 14.30441561425398 FO-29 1 24278U 96046B 21021.52380806 -.00000013 00000-0 21715-4 0 9991 2 24278 98.5841 108.8738 0350603 170.0903 190.7391 13.53102219206377 NOAA-15 1 25338U 98030A 21021.79190968 .00000023 00000-0 28086-4 0 9999 2 25338 98.6984 51.5097 0010171 353.5948 6.5100 14.26009475180347 GO-32 1 25397U 98043D 21021.80399640 -.00000018 00000-0 11397-4 0 9990 2 25397 98.7549 327.8950 0002031 120.6051 239.5328 14.23699645170846 ISS 1 25544U 98067A 21021.90743957 -.00000449 00000-0 00000 0 0 9997 2 25544 51.6420 346.2182 0002812 298.1417 162.0993 15.48879269265924 NO-44 1 26931U 01043C 21021.85415457 -.00000057 00000-0 98273-5 0 9991 2 26931 67.0521 298.7761 0007423 271.5131 88.5120 14.30603260 8388 SO-50 1 27607U 02058C 21021.51807552 -.00000017 00000-0 17835-4 0 9993 2 27607 64.5557 67.6414 0029367 86.3610 274.0850 14.75704038973032 CO-55 1 27844U 03031E 21021.44801429 .00000054 00000-0 44015-4 0 9997 2 27844 98.6818 31.8804 0010535 140.0800 220.1155 14.22283221911080 CO-57 1 27848U 03031J 21021.46801379 .00000033 00000-0 34528-4 0 9992 2 27848 98.6880 32.4682 0010243 152.0718 208.1012 14.21863774910927 RS-22 1 27939U 03042A 21021.80120525 .00000079 00000-0 22796-4 0 9994 2 27939 98.1172 160.1342 0013361 29.3011 330.8943 14.66934906926024 NOAA-18 1 28654U 05018A 21021.75503849 .00000072 00000-0 63233-4 0 9996 2 28654 99.0157 85.9040 0013755 339.5108 20.5510 14.12574799807821 CO-58 1 28895U 05043F 21021.12711676 .00000117 00000-0 31374-4 0 9992 2 28895 98.0360 157.7942 0015768 317.6776 42.3209 14.63855450812450 Falconsat-3 1 30776U 07006E 21021.85922251 .00003484 00000-0 88225-4 0 9994 2 30776 35.4354 321.3640 0002703 332.1215 27.9368 15.39360038770497 CO-65 1 32785U 08021C 21021.80259528 .00000234 00000-0 30679-4 0 9999 2 32785 97.5952 6.4889 0014197 125.4046 234.8500 14.88615067690422 AAUSAT2 1 32788U 08021F 21021.42094606 .00000782 00000-0 75734-4 0 9993 2 32788 97.4983 22.3276 0012926 49.0830 311.1508 14.95354866691888 DO-64 1 32789U 08021G 21021.83892860 .00001447 00000-0 96824-4 0 9999 2 32789 97.3946 62.7656 0010380 288.2589 71.7510 15.08409992694822 CO-66 1 32791U 08021J 21021.22148354 .00000274 00000-0 32868-4 0 9992 2 32791 97.5580 11.9699 0014781 96.0943 264.1960 14.91251562690914 RS-30 1 32953U 08025A 21021.74835051 .00000028 00000-0 12906-3 0 9997 2 32953 82.5053 142.1760 0018533 297.1539 62.7653 12.43099414574758 PRISM 1 33493U 09002B 21021.12969255 .00000567 00000-0 54264-4 0 9991 2 33493 98.1698 336.7758 0015788 56.5827 303.6901 14.97381253652273 NOAA-19 1 33591U 09005A 21021.77555869 .00000010 00000-0 31018-4 0 9991 2 33591 99.1929 38.7745 0013962 180.2241 179.8926 14.12449337616211 TISAT-1 1 36799U 10035E 21021.74675471 .00000242 00000-0 30313-4 0 9992 2 36799 98.2021 206.6294 0011680 340.2853 19.7911 14.91575948571664 JUGNU 1 37839U 11058B 21021.77163529 .00000304 00000-0 20363-4 0 9996 2 37839 19.9629 38.7750 0018657 275.3473 241.6353 14.12701003479807 SRMSAT 1 37841U 11058D 21021.59289191 .00000287 00000-0 12286-4 0 9998 2 37841 19.9721 108.6967 0011956 119.6756 15.6160 14.10683364478967 AO-71 1 37854U 11061E 21021.51307701 .00001466 00000-0 79613-4 0 9993 2 37854 101.7127 231.6599 0156082 133.0987 228.3409 15.08077475504333 HRBE 1 37855U 11061F 21020.80300280 .00001637 00000-0 86595-4 0 9997 2 37855 101.7265 227.6311 0168572 149.6389 211.4719 15.07105856503936 HORYU-2 1 38340U 12025D 21021.71626880 .00000163 00000-0 31493-4 0 9996 2 38340 98.2532 86.2057 0012552 67.7026 292.5512 14.75963234467153 RS-40 1 38735U 12041C 21021.73147354 .00000013 00000-0 23697-4 0 9999 2 38735 82.4740 224.5516 0017844 46.8816 313.3748 12.42581609384962 BEESAT-3 1 39135U 13015F 21021.17767155 .00000956 00000-0 55177-4 0 9995 2 39135 64.8680 317.9756 0016877 207.5287 152.4948 15.18842679428270 BEESAT-2 1 39136U 13015G 21021.24652834 .00001093 00000-0 62495-4 0 9995 2 39136 64.8745 323.5487 0029053 263.1336 96.6485 15.18220442428161 ZACUBE-1 1 39417U 13066B 21021.41061125 .00000247 00000-0 37290-4 0 9994 2 39417 97.5799 13.4786 0057277 283.6454 75.8386 14.81412312387306 TRITON-1 1 39427U 13066M 21021.85733497 .00000228 00000-0 43847-4 0 9995 2 39427 97.7573 337.0275 0114889 99.4862 261.9351 14.68135186383904 GOMX-1 1 39430U 13066Q 21021.75711545 .00000128 00000-0 32389-4 0 9996 2 39430 97.8094 313.2959 0149727 216.5647 142.5277 14.59523438381645 LO-74 1 39440U 13066AA 21021.83763105 .00000302 00000-0 48720-4 0 9995 2 39440 97.6576 358.5895 0079818 352.3597 7.6391 14.76144911385990 AO-73 1 39444U 13066AE 21021.21360942 .00000316 00000-0 44931-4 0 9998 2 39444 97.5721 15.6201 0056316 275.2289 84.2500 14.82297015385620 SPROUT 1 39770U 14029E 21021.77522939 .00000579 00000-0 68982-4 0 9990 2 39770 97.9063 133.3278 0008474 337.1549 22.9257 14.88133961361522 DUCHIFAT-1 1 40021U 14033M 21021.78942505 .00000425 00000-0 48638-4 0 9998 2 40021 97.9606 320.5635 0011558 290.8968 69.1012 14.91151555358420 NANOSATCBR1 1 40024U 14033Q 21021.80202031 .00000318 00000-0 38716-4 0 9994 2 40024 97.9422 316.2020 0010917 296.8197 63.1904 14.90280577358270 DTUSAT-2 1 40030U 14033W 21021.51542333 .00000258 00000-0 33509-4 0 9999 2 40030 97.9117 308.8550 0010678 302.7439 57.2748 14.88872290357458 EO-80 1 40032U 14033Y 21021.54144813 .00000311 00000-0 39248-4 0 9991 2 40032 97.9123 308.8854 0010673 303.4578 56.5617 14.88825812357434 ANTELSAT 1 40034U 14033AA 21021.53436199 .00000232 00000-0 41458-4 0 9991 2 40034 97.6897 232.4834 0058932 15.1210 345.1744 14.74384163354542 VELOX-1 1 40057U 14034E 21021.70459629 .00000263 00000-0 44034-4 0 9996 2 40057 98.3057 171.0741 0011395 161.6132 198.5494 14.78045127353864 DAURIA DX 1 1 40071U 14037C 21021.75231675 .00000083 00000-0 18170-4 0 9991 2 40071 98.4576 218.2932 0008972 150.7564 209.4150 14.81443120353576 HODOYOSHI-1 1 40299U 14070B 21021.74663366 .00000598 00000-0 27172-4 0 9998 2 40299 97.3028 99.2070 0013917 140.0188 335.7956 15.24427233345064 CHUBUSAT-1 1 40300U 14070C 21021.79183466 .00000665 00000-0 31167-4 0 9998 2 40300 97.2640 90.1455 0019753 159.6875 320.0099 15.22895086344737 QSAT-EOS 1 40301U 14070D 21021.75762970 .00001950 00000-0 73594-4 0 9996 2 40301 97.2714 97.0600 0025843 131.8589 345.3306 15.27910539345254 FIREBIRD FU3 1 40377U 15003B 21021.80194284 .00002044 00000-0 79739-4 0 9991 2 40377 99.0829 132.6597 0119600 304.4085 54.5884 15.21268901330492 FIREBIRD FU4 1 40378U 15003C 21021.84858759 .00002081 00000-0 80957-4 0 9995 2 40378 99.0835 132.8342 0119699 304.0845 54.9071 15.21307544330509 GRIFEX 1 40379U 15003D 21021.84052196 .00001200 00000-0 53191-4 0 9999 2 40379 99.0844 123.3403 0129930 333.6612 25.8048 15.17270059329955 NO-84 1 40654U 15025D 21020.34240607 .00020235 00000-0 18806-3 0 1645 2 40654 54.9841 16.3339 0099363 35.7234 325.0495 15.61303116202819 DEORBITSAIL 1 40719U 15032E 21021.56167189 .00000373 00000-0 59759-4 0 9993 2 40719 97.8465 270.5205 0015234 219.9808 140.0282 14.77211711298294 NUDT-PHONESAT 1 40900U 15049B 21021.75333286 .00002489 00000-0 10152-3 0 9990 2 40900 97.4257 36.8995 0010767 301.1329 174.8768 15.25336020296453 XW-2A 1 40903U 15049E 21021.71513784 .00002370 00000-0 53373-4 0 9994 2 40903 97.2586 76.5662 0012521 181.3867 273.2294 15.44242226300141 XW-2C 1 40906U 15049H 21021.77221090 .00000560 00000-0 32196-4 0 9998 2 40906 97.4833 26.0183 0014210 343.5779 189.8765 15.16435100295333 XW-2D 1 40907U 15049J 21021.71901359 .00000832 00000-0 45827-4 0 9993 2 40907 97.4822 25.7151 0013389 340.3691 135.0938 15.16717108295355 LILACSAT-2 1 40908U 15049K 21021.74074394 .00000616 00000-0 37230-4 0 9996 2 40908 97.4994 23.7887 0015503 353.2460 179.0661 15.14260640295024 XW-2E 1 40909U 15049L 21021.70614089 .00001052 00000-0 53427-4 0 9995 2 40909 97.4659 29.5157 0012314 328.5043 145.2313 15.19027158295654 XW-2F 1 40910U 15049M 21021.78855826 .00001252 00000-0 63847-4 0 9990 2 40910 97.4715 28.6734 0013515 326.6752 121.0804 15.18534153295463 XW-2B 1 40911U 15049N 21021.77787399 .00000693 00000-0 38812-4 0 9991 2 40911 97.4822 26.4684 0013413 341.1418 123.1589 15.16637150295250 DCBB 1 40912U 15049P 21021.82880940 .00001257 00000-0 59739-4 0 9992 2 40912 97.4472 33.0327 0012952 299.0111 143.2466 15.21004743295909 TW-1C 1 40926U 15051B 21021.72619469 .00155441 10664-4 52595-3 0 9993 2 40926 97.0473 82.8877 0001322 313.5675 169.0944 15.89961344301345 TW-1A 1 40928U 15051D 21021.78224199 .00003422 00000-0 75981-4 0 9998 2 40928 97.0910 50.2503 0011770 107.2672 10.6083 15.44305348299046 IO-86 1 40931U 15052B 21020.02221672 .00000755 00000-0 16023-4 0 9990 2 40931 5.9986 230.9953 0012935 100.2808 259.8784 14.76659921287321 LQSat 1 40958U 15057A 21021.76436845 .00000007 00000-0 85755-5 0 9995 2 40958 97.8251 83.6855 0018471 163.8912 196.2880 14.73151972284644 ATHENOXAT-1 1 41168U 15077C 21021.81638799 .00002124 00000-0 73820-4 0 9990 2 41168 14.9874 258.6236 0011442 288.8515 144.0498 15.15091046282505 ChubuSat-2 1 41338U 16012B 21021.38477400 .00000325 00000-0 18427-4 0 9994 2 41338 31.0044 41.0203 0013683 116.2610 243.9433 15.00425735270493 ChubuSat-3 1 41339U 16012C 21021.68869850 .00000286 00000-0 15326-4 0 9993 2 41339 31.0124 36.4732 0013383 127.1058 233.0819 15.00581406270533 Horyu-4 1 41340U 16012D 21021.33429511 .00000476 00000-0 29027-4 0 9997 2 41340 31.0065 24.0592 0013879 151.9900 208.1485 15.01716929270653 OUFTI-1 1 41458U 16025C 21021.83020136 .00004093 00000-0 20251-3 0 9994 2 41458 98.1226 150.3631 0160621 193.7152 165.9686 15.07810077260370 e-st@r-II 1 41459U 16025D 21021.61150176 .00003465 00000-0 17349-3 0 9995 2 41459 98.1216 149.3523 0162676 196.9131 162.6642 15.07299740260297 AAUSAT4 1 41460U 16025E 21021.79000404 .00003782 00000-0 18198-3 0 9999 2 41460 98.1200 152.7225 0150340 182.2956 177.7600 15.10012053260573 LO-87 1 41557U 16033B 21021.75988534 .00001389 00000-0 52217-4 0 9992 2 41557 97.3974 116.6017 0014220 41.0271 112.6134 15.28786935259119 NuSat2 1 41558U 16033C 21021.76414434 .00001634 00000-0 57284-4 0 9999 2 41558 97.4056 119.7726 0013110 36.8240 114.7206 15.30853876259270 Lapan A3 1 41603U 16040E 21021.72559389 .00000223 00000-0 13397-4 0 9993 2 41603 97.2793 74.0434 0014008 150.6730 328.6084 15.19947897254293 Swayam 1 41607U 16040J 21021.10422752 .00001792 00000-0 74251-4 0 9990 2 41607 97.2902 81.0782 0014049 134.4097 225.8294 15.25094846254581 Pratham 1 41783U 16059A 21021.70456777 .00000046 00000-0 18074-4 0 9997 2 41783 97.9877 76.6680 0033214 350.9960 9.0642 14.63106476230790 AlSat 1N 1 41789U 16059G 21021.80623088 .00000058 00000-0 19798-4 0 9992 2 41789 97.9914 80.1049 0027823 337.1732 22.8222 14.64381452230988 ScatSat 1 41790U 16059H 21021.73958106 .00000015 00000-0 15206-4 0 9991 2 41790 98.3892 64.2597 0004851 343.3641 16.7392 14.50804218228875 TY-1 1 41844U 16066D 21021.73500259 .00000989 00000-0 42031-4 0 9997 2 41844 97.4012 33.4911 0013299 299.3052 178.5876 15.25355048233537 Pegasus-1 1 41846U 16066F 21021.58914721 .00000157 00000-0 35056-4 0 9991 2 41846 98.6332 79.5996 0365295 303.4142 53.2597 14.37922160220312 CAS-2T 1 41847U 16066G 21021.74534373 .00000036 00000-0 16645-4 0 9990 2 41847 98.6245 80.1080 0364388 298.2615 58.2242 14.38137523220792 EO-88 1 42017U 17008BX 21021.45640303 .00001699 00000-0 66074-4 0 9993 2 42017 97.3356 91.6254 0004438 269.4657 90.6074 15.27387150218819 CAS-4B 1 42759U 17034B 21021.72488759 .00000211 00000-0 26136-4 0 9994 2 42759 43.0181 267.6462 0010889 319.9776 140.7300 15.10047275198967 CAS-4A 1 42761U 17034D 21021.85519887 .00000196 00000-0 25203-4 0 9994 2 42761 43.0184 266.0829 0011333 322.2120 133.3519 15.10127890198982 UCLSat 1 42765U 17036A 21021.10612431 .00001460 00000-0 62645-4 0 9993 2 42765 97.2725 75.2039 0010496 347.2869 12.8102 15.24234286199722 NIUSat 1 42766U 17036B 21021.55401639 .00001052 00000-0 48579-4 0 9996 2 42766 97.2723 72.4938 0014449 339.2158 20.8489 15.22258839198861 LituanicaSAT 2 1 42768U 17036D 21021.30606113 .00002369 00000-0 96861-4 0 9994 2 42768 97.2796 75.7885 0013147 332.6298 27.4246 15.25241214199032 Aalto 1 1 42775U 17036L 21021.59152176 .00000859 00000-0 40199-4 0 9993 2 42775 97.2698 72.8381 0012918 339.0472 21.0233 15.22285624198855 URSA MAIOR 1 42776U 17036M 21021.55195291 .00000939 00000-0 43397-4 0 9997 2 42776 97.2712 73.1860 0012692 338.7734 21.2975 15.22516278198863 Max Valier Sat 1 42778U 17036P 21021.69320449 .00000951 00000-0 43131-4 0 9999 2 42778 97.2773 74.9799 0011254 341.5371 18.5456 15.23150152198942 Pegasus 1 42784U 17036V 21021.70396107 .00001247 00000-0 54473-4 0 9992 2 42784 97.2730 75.3806 0011031 346.1033 13.9899 15.23864952199003 NUDATSat 1 42787U 17036Y 21021.88210618 .00001987 00000-0 81125-4 0 9991 2 42787 97.2778 77.5075 0010742 340.5462 19.5362 15.25507804198987 SUCHAI 1 1 42788U 17036Z 21021.37965792 .00001407 00000-0 59936-4 0 9998 2 42788 97.2742 75.8755 0010502 345.0732 15.0195 15.24538369199074 SKCUBE 1 42789U 17036AA 21021.58279199 .00001399 00000-0 59988-4 0 9998 2 42789 97.2735 75.8499 0010406 344.9867 15.1061 15.24326233199014 VZLUSAT 1 1 42790U 17036AB 21021.41488010 .00001839 00000-0 75384-4 0 9993 2 42790 97.2766 77.0428 0009743 342.1612 17.9283 15.25479695199069 VENTA 1 1 42791U 17036AC 21021.56020542 .00001333 00000-0 57350-4 0 9994 2 42791 97.2732 75.8560 0010095 345.9504 14.1451 15.24301569199002 Robusta 1B 1 42792U 17036AD 21021.57349443 .00001469 00000-0 62450-4 0 9997 2 42792 97.2738 76.1650 0009984 345.5463 14.5488 15.24540115199048 D-SAT 1 42794U 17036AF 21021.30133199 .00000290 00000-0 30363-4 0 9998 2 42794 97.4740 48.9184 0125766 358.3541 1.7247 14.91429250195125 TechnoSat 1 42829U 17042E 21021.50601665 .00000051 00000-0 10384-4 0 9990 2 42829 97.4904 258.6444 0012652 279.1563 80.8225 14.91205280191785 QIKCOM-1 1 42983U 98067NF 21021.76704812 .00005502 00000-0 62250-4 0 9998 2 42983 51.6373 283.2238 0004090 147.7818 212.3427 15.64216768184426 AO-91 1 43017U 17073E 21021.70010707 .00000706 00000-0 59276-4 0 9997 2 43017 97.7170 291.4423 0257144 59.1996 303.4255 14.79263850171427 EcAMSat 1 43019U 98067NG 21021.84963311 .00013755 00000-0 10726-3 0 9998 2 43019 51.6397 259.1122 0004384 148.1132 212.0132 15.72021812267073 PICSAT 1 43132U 18004X 21021.45926738 .00001451 00000-0 60621-4 0 9996 2 43132 97.4257 97.2789 0009505 16.5557 343.5989 15.25206411168271 AO-92 1 43137U 18004AC 21021.74686316 .00001128 00000-0 48457-4 0 9992 2 43137 97.4239 97.2147 0009254 18.5497 341.6076 15.24730896168296 TianYi 2 1 43155U 18008A 21021.77040852 .00000619 00000-0 39519-4 0 9991 2 43155 97.4221 91.0339 0018955 113.4587 4.8056 15.12068034165901 Zhou Enlai 1 43156U 18008B 21021.73124911 .00001192 00000-0 73647-4 0 9994 2 43156 97.4275 90.8338 0016066 112.5607 3.0451 15.11646978165842 TianYi 6 1 43158U 18008D 21021.75276292 .00000382 00000-0 26466-4 0 9995 2 43158 97.4195 89.6303 0014862 109.9366 5.2499 15.11122383165785 S-Net D 1 43186U 18014G 21021.17145821 .00000407 00000-0 40388-4 0 9999 2 43186 97.6869 291.3351 0009899 207.9106 152.1586 14.96955321162263 S-Net B 1 43187U 18014H 21021.50554885 .00000326 00000-0 33345-4 0 9996 2 43187 97.6867 291.6353 0009946 206.7192 153.3518 14.96955035162318 S-Net A 1 43188U 18014J 21021.50547750 .00000342 00000-0 34771-4 0 9992 2 43188 97.6870 291.6736 0009962 206.7999 153.2710 14.96953702162313 S-Net C 1 43189U 18014K 21021.37228001 .00000315 00000-0 32419-4 0 9990 2 43189 97.6866 291.4980 0009939 207.1990 152.8712 14.96953835160848 FMN 1 1 43192U 18015A 21021.73871333 .00002458 00000-0 95618-4 0 9997 2 43192 97.4670 156.7255 0016070 44.6056 62.7641 15.26887774165197 Shaonian Xing 1 43199U 18015H 21021.72885502 .00001753 00000-0 69323-4 0 9997 2 43199 97.4463 154.3746 0017548 53.5156 54.4397 15.26709672165257 SurfSat 1 43614U 18070B 21021.30772245 .00003198 00000-0 78268-4 0 9996 2 43614 93.0249 244.8830 0013058 205.2114 154.8505 15.40759548132000 CP-7 DAVE 1 43615U 18070C 21021.55973192 .00003195 00000-0 78785-4 0 9999 2 43615 93.0251 244.9614 0013312 203.9722 156.0915 15.40526848132035 ELFIN-B 1 43616U 18070D 21021.56088534 .00004797 00000-0 11019-3 0 9993 2 43616 93.0210 245.0079 0013325 203.9905 156.0732 15.42634962132110 ELFIN-A 1 43617U 18070E 21021.55851798 .00005328 00000-0 12102-3 0 9998 2 43617 93.0265 245.7135 0012823 199.8350 160.2410 15.42974099132129 STARS-Me Mother 1 43640U 98067PQ 21021.54928791 .00033960 00000-0 21517-3 0 9998 2 43640 51.6307 275.4517 0004962 140.9080 219.2279 15.76195883130981 CubeBel 1 1 43666U 18083E 21021.83154793 .00001095 00000-0 55787-4 0 9992 2 43666 97.4709 51.9695 0013576 325.9040 207.5686 15.18832671123757 Changshagaoxin 1 43669U 18083H 21021.76352582 .00000633 00000-0 34696-4 0 9996 2 43669 97.4605 49.4253 0009704 322.4003 150.6090 15.17736671123632 Ten-Koh 1 43677U 18084G 21021.83037357 .00000164 00000-0 22707-4 0 9993 2 43677 97.9023 144.6845 0016672 154.0227 206.1831 14.90388260121460 PO-101 1 43678U 18084H 21021.75473545 -.00000202 00000-0 -14381-4 0 9992 2 43678 97.9050 146.4778 0010146 167.7713 192.3772 14.91695826121568 IRVINE 01 1 43693U 18088D 21021.76253310 .00003086 00000-0 12422-3 0 9994 2 43693 85.0348 292.3676 0015689 200.0260 160.0370 15.24322447122083 QO-100 1 43700U 18090A 21021.36160334 .00000154 00000-0 00000 0 0 9993 2 43700 0.0137 81.1141 0001791 258.8692 296.8822 1.00273007 8130 Reaktor Hello World 1 43743U 18096AA 21021.54237749 .00001426 00000-0 54465-4 0 9993 2 43743 97.4011 100.1439 0019073 78.4689 281.8691 15.28152052119697 MinXSS-2 1 43758U 18099A 21021.48377126 .00000864 00000-0 82235-4 0 9990 2 43758 97.6850 95.6189 0015819 174.9072 185.2313 14.95882830116544 AO-95 1 43770U 18099N 21021.15903796 .00000416 00000-0 42985-4 0 9997 2 43770 97.6836 94.4849 0014447 184.2163 175.8939 14.95175038116446 RANGE-B 1 43772U 18099Q 21021.75021196 .00000903 00000-0 86694-4 0 9996 2 43772 97.6914 95.8450 0014572 169.3758 190.7774 14.95428017116532 RANGE-A 1 43773U 18099R 21021.75809298 .00000264 00000-0 29248-4 0 9996 2 43773 97.6774 94.5339 0013812 169.0170 191.1355 14.95106655116520 MOVE-II 1 43780U 18099Y 21021.44333179 .00000043 00000-0 90221-5 0 9995 2 43780 97.6848 95.1443 0013522 180.6098 179.5109 14.95690149116498 SNUSat 2 1 43782U 18099AA 21021.75137542 .00000673 00000-0 65928-4 0 9991 2 43782 97.6833 95.3553 0013136 167.7550 192.3993 14.95429149116548 SnugLite 1 43784U 18099AC 21021.36996642 -.00000072 00000-0 -12808-5 0 9999 2 43784 97.6800 94.7473 0015095 178.1042 182.0239 14.95540300116504 ITASat 1 1 43786U 18099AE 21021.50962086 -.00000188 00000-0 -11814-4 0 9995 2 43786 97.6854 95.4041 0015228 177.0047 183.1268 14.95488223116526 EAGLET 1 1 43790U 18099AJ 21021.44627654 -.00000210 00000-0 -13591-4 0 9992 2 43790 97.6843 95.6928 0013442 180.8762 179.2438 14.95866339116238 ESEO 1 43792U 18099AL 21021.74500596 .00000550 00000-0 54510-4 0 9993 2 43792 97.6811 95.6851 0013469 175.8775 184.2559 14.95677979116338 CSIM 1 43793U 18099AM 21021.44301317 -.00000013 00000-0 39676-5 0 9993 2 43793 97.6828 95.5626 0013236 174.5264 185.6104 14.96347599116285 Astrocast 0.1 1 43798U 18099AS 21021.74778375 .00000749 00000-0 71773-4 0 9991 2 43798 97.6844 96.1368 0013103 158.7309 201.4460 14.96015562116582 JO-97 1 43803U 18099AX 21021.42924630 .00000288 00000-0 30929-4 0 9996 2 43803 97.6817 95.0981 0015196 176.8955 183.2364 14.95704578116514 Suomi 100 1 43804U 18099AY 21021.43227450 .00000112 00000-0 15178-4 0 9999 2 43804 97.6812 95.0782 0015244 177.1128 183.0184 14.95683643116527 Al Farabi 2 1 43805U 18099AZ 21021.85412093 -.00000286 00000-0 -20375-4 0 9994 2 43805 97.6818 95.6494 0015327 175.7347 184.4007 14.95852251116598 PWSat 2 1 43814U 18099BJ 21021.79135522 .00203818 00000-0 42819-2 0 9995 2 43814 97.7863 116.1975 0009736 222.9347 137.1141 15.44519387116920 CHOMPTT 1 43855U 18104G 21021.80945002 .00001282 00000-0 51836-4 0 9993 2 43855 85.0359 30.6689 0016099 334.8389 25.2067 15.23515529116763 ISAT 1 43879U 18111D 21021.76721690 .00000935 00000-0 87373-4 0 9996 2 43879 97.6934 291.5522 0011783 229.1168 130.9044 14.96462678111115 UWE-4 1 43880U 18111E 21021.17699218 .00000180 00000-0 20781-4 0 9995 2 43880 97.6962 291.3611 0010789 233.9133 126.1090 14.96704180113055 Sparrow 1 43881U 18111F 21021.48715766 .00000812 00000-0 76056-4 0 9995 2 43881 97.6962 291.7710 0011211 229.0884 130.9367 14.96748267113100 Lume 1 1 43908U 18111AJ 21021.44196276 .00001160 00000-0 48025-4 0 9992 2 43908 97.2487 280.7602 0022549 91.6998 268.6823 15.25679053115254 FO-98 1 43933U 19003B 21021.53494299 .00004562 00000-0 19268-3 0 9992 2 43933 97.2034 68.6389 0017533 188.2517 171.8435 15.23597798111716 FO-99 1 43937U 19003F 21021.57992063 .00001413 00000-0 58797-4 0 9995 2 43937 97.1985 70.5302 0023923 169.1312 191.0448 15.25105426111872 Delphini 1 1 44030U 98067PW 21021.08240147 .00095655 00000-0 36961-3 0 9991 2 44030 51.6281 278.9895 0005481 162.5233 197.5960 15.86461489112760 MYSat 1 1 44045U 18092F 21021.47555406 .00002632 00000-0 78766-4 0 9990 2 44045 51.6390 62.5692 0011304 34.5480 325.6237 15.38368471108829 AstroCast 0.2 1 44083U 19018F 21021.72592693 .00001151 00000-0 53298-4 0 9996 2 44083 97.3944 85.4455 0014451 123.6212 236.6405 15.22041824100578 AISTechSat 3 1 44103U 19018AB 21021.71629113 .00000917 00000-0 41112-4 0 9997 2 44103 97.3810 85.7433 0014622 135.3144 346.5008 15.23648951100661 AISat 1 1 44104U 19018AC 21021.75717029 .00001212 00000-0 40342-4 0 9999 2 44104 97.4417 98.5689 0058045 155.8466 204.5517 15.31595518101211 Raavana-1 1 44329U 98067QE 21021.52868272 .00021677 00000-0 21676-3 0 9996 2 44329 51.6374 316.1428 0006575 100.5613 259.6123 15.65503434 91064 Uguisu 1 44330U 98067QF 21021.11152510 .00023384 00000-0 23542-3 0 9995 2 44330 51.6353 318.5498 0006594 97.9844 262.1900 15.65280504 90973 NepaliSat-1 1 44331U 98067QG 21021.83914166 .00021740 00000-0 21740-3 0 9990 2 44331 51.6351 314.4097 0006587 103.9380 256.2348 15.65500882 91107 Prox-1 1 44339U 19036A 21021.57746606 .00000885 00000-0 15898-3 0 9994 2 44339 23.9990 179.0697 0011208 13.8171 346.2626 14.53331875 83829 Oculus-ASR 1 44348U 19036K 21021.34364752 .00007625 00000-0 10487-3 0 9995 2 44348 28.5141 29.5033 0347478 119.9500 243.6059 15.07693698 86654 Armadillo 1 44352U 19036P 21021.27883515 .00012065 00000-0 16195-3 0 9991 2 44352 28.5299 17.8392 0325798 137.5613 225.0657 15.12863630 86719 NO-104 1 44354U 19036R 21021.24500352 .00008775 00000-0 11886-3 0 9990 2 44354 28.5291 25.2510 0343338 125.2173 238.1062 15.08973591 86687 NO-103 1 44355U 19036S 21021.27280168 .00017802 00000-0 21815-3 0 9998 2 44355 28.5291 359.9194 0301598 166.4440 194.4468 15.19706262 86943 CP9 1 44360U 19036X 21021.15222218 .00037633 -60717-5 34001-3 0 9995 2 44360 28.5107 324.0913 0257974 226.2731 131.6235 15.33798943 87166 Move-IIb 1 44398U 19038N 21021.59063441 .00001121 00000-0 66692-4 0 9995 2 44398 97.5642 346.4906 0026294 95.1769 265.2462 15.13051166 85554 SONATE 1 44400U 19038Q 21021.56950507 .00000332 00000-0 22863-4 0 9999 2 44400 97.5693 346.4381 0026503 94.2950 266.1308 15.12274185 85530 BeeSat 9 1 44412U 19038AC 21020.86121040 .00001114 00000-0 66807-4 0 9991 2 44412 97.5689 345.9117 0024008 101.5533 258.8395 15.12823919 85131 JAISAT-1 1 44419U 19038F 21021.80386456 .00001016 00000-0 60476-4 0 9994 2 44419 97.5692 347.2783 0022868 97.2285 263.1547 15.13309132 85611 LightSail-2 1 44420U 19036AC 21021.76839829 .00007108 00000-0 14589-2 0 9996 2 44420 24.0076 165.8534 0020137 0.7730 359.2792 14.58234508 82161 Taurus 1 1 44530U 19059C 21021.81956131 .00000453 00000-0 14020-3 0 9992 2 44530 98.5576 110.9314 0013932 218.7192 141.2999 14.45860615 71895 Duchifat 3 1 44854U 19089C 21021.75567363 .00000320 00000-0 32117-4 0 9993 2 44854 36.9661 248.0467 0008258 19.0616 341.0411 14.99298641 61076 OPS-SAT 1 44878U 19092F 21021.22677790 .00001171 00000-0 64236-4 0 9993 2 44878 97.4690 206.9345 0013063 326.5777 33.4630 15.16060720 60527 TO-108 1 44881U 19093C 21021.76345848 -.00000244 00000-0 -24264-4 0 9992 2 44881 97.9388 102.1019 0016158 52.1212 308.1462 14.81419550 59016 FloripaSat 1 1 44885U 19093G 21021.72915490 .00000250 00000-0 37985-4 0 9997 2 44885 97.9402 102.4479 0015825 61.2853 298.9959 14.82181912 59030 RS-44 1 44909U 19096E 21021.48835237 .00000018 00000-0 19236-4 0 9991 2 44909 82.5194 210.4395 0218336 76.8098 285.7261 12.79708263 50070 SwampSat-2 1 45115U 19071E 21021.71222721 .00018914 00000-0 43237-3 0 9999 2 45115 51.6402 20.6153 0010045 117.6325 242.5681 15.42814315 54717 HO-107 1 45119U 19071J 21021.37318821 .00002036 00000-0 70700-4 0 9996 2 45119 51.6431 29.4890 0012241 117.1349 243.0883 15.34736080 54576 Phoenix 1 45258U 98067RB 21021.27851543 .00006672 00000-0 10952-3 0 9996 2 45258 51.6414 343.7392 0006753 70.5842 289.5878 15.53712580 52309 AztechSat-1 1 45261U 98067RE 21021.59033515 .00016136 00000-0 21950-3 0 9992 2 45261 51.6400 338.3335 0008225 87.2200 272.9733 15.57704873 52434 QARMAN 1 45263U 98067RG 21021.25850948 .00011771 00000-0 17281-3 0 9996 2 45263 51.6407 342.1151 0007825 82.5035 277.6846 15.55955322 52387 Quetzal 1 1 45598U 98067RL 21021.28080924 .00011016 00000-0 16990-3 0 9997 2 45598 51.6423 344.5226 0002677 140.9035 219.2150 15.54695058 41625 BY70-2 1 45857U 20042B 21021.82255198 .00000842 00000-0 12776-3 0 9993 2 45857 97.9968 99.0626 0009765 330.6378 29.4272 14.76633350 29902 UPMSat 2 1 46276U 20061E 21021.78928178 .00000525 00000-0 30538-4 0 9995 2 46276 97.4493 98.4209 0002663 120.4090 239.7407 15.16241684 21315 AmicalSat 1 46287U 20061R 21021.75877680 .00000740 00000-0 49177-4 0 9993 2 46287 97.5045 98.1535 0001666 209.2161 150.8975 15.10187380 21204 SALSAT 1 46495U 20068K 21021.56816465 .00001017 00000-0 79302-4 0 9995 2 46495 97.6809 320.0605 0016527 207.1074 152.9289 15.03328419 17265 BY70-3 1 46839U 20079N 21021.79999650 .00002056 00000-0 67542-4 0 9999 2 46839 97.2565 98.5574 0007795 25.3560 97.4186 15.32670915 11739 Bobcat-1 1 46921U 98067RR 21021.28958062 .00006426 00000-0 11408-3 0 9993 2 46921 51.6439 348.3266 0001152 235.1008 124.9874 15.51565365 11999 SPOC 1 46922U 98067RS 21021.27774309 .00008697 00000-0 14903-3 0 9998 2 46922 51.6442 348.2503 0000641 236.5309 123.5620 15.52058201 11955 Neutron-1 1 46923U 98067RT 21021.29414629 .00006407 00000-0 11417-3 0 9991 2 46923 51.6438 348.3563 0000982 265.2344 94.8534 15.51464658 12023 CAPE 3 1 47309U 21002A 21021.54361679 .00001600 00000-0 85142-4 0 9996 2 47309 60.6849 120.9508 0017544 289.8211 70.0957 15.20256032 548 OBJECT B 1 47310U 21002B 21021.80585738 .00002512 00000-0 12559-3 0 9995 2 47310 60.6832 119.9636 0015201 290.5249 69.4208 15.20582692 578 OBJECT C 1 47311U 21002C 21021.54138011 .00001649 00000-0 85258-4 0 9992 2 47311 60.6876 120.9399 0012829 283.7811 76.1866 15.21180065 537 OBJECT D 1 47312U 21002D 21021.54133641 .00005834 00000-0 27065-3 0 9998 2 47312 60.6854 120.9380 0012981 284.8048 75.1615 15.21213379 533 OBJECT E 1 47313U 21002E 21021.54019119 .00002717 00000-0 13074-3 0 9994 2 47313 60.6845 120.9326 0015456 268.3195 91.6067 15.21675185 535 MiTEE 1 1 47314U 21002F 21021.27600519 .00002661 00000-0 12615-3 0 9993 2 47314 60.6853 121.9093 0014024 259.3729 100.5736 15.22276828 490 OBJECT G 1 47315U 21002G 21021.53785956 .00001781 00000-0 87471-4 0 9997 2 47315 60.6841 120.9211 0011955 252.8073 107.1743 15.22637218 539 OBJECT J 1 47317U 21002J 21019.43891341 -.00000243 00000-0 12602-5 0 9999 2 47317 60.6849 128.8110 0017380 287.3695 72.5476 15.20319036 198 OBJECT K 1 47318U 21002K 21021.54335715 .00001739 00000-0 91228-4 0 9993 2 47318 60.6863 120.9501 0017003 288.0601 71.8643 15.20363821 514 ExoCube 2 1 47319U 21002L 21021.54223601 .00001108 00000-0 61809-4 0 9996 2 47319 60.6853 120.9442 0014009 288.1611 71.7949 15.20825001 480 OBJECT M 1 47320U 21002M 21021.54154481 .00001929 00000-0 97867-4 0 9991 2 47320 60.6862 120.9406 0013299 282.6836 77.2776 15.21113172 568 /EX